Kosmos-2569

operational
NORAD ID: 57517 Int'l Des: 2023-114 Owner: VVKOV/IACG Country: RU Constellation: GLONASS
MEOCIRCULAR

Über Kosmos-2569

Beschreibung wird geladen...

Live-Position

3D-Globus wird geladen...

Nächste Überflüge

Höhenverlauf

Altitude vs Time

uPlot chart will show altitude changes over time

Zweizeiliger Elementsatz

1 57517U 23114A 25295.34016030 .00000000 00000-0 00000-0 0 9996
2 57517 65.1673 80.6499 0008873 288.7945 71.0974 2.13103932 17190
Epoch: 22. Okt. 2025 • Age: 96 hours

Aktueller Status

Höhe 19135.9 km
Geschwindigkeit 3.95 km/s
Subsatellitenpunkt -6.96°S, 106.73°E
Startdatum 7. Aug. 2023
Alter 2.2 years
Typ other

Technische Details

Klassifizierung Payload
Masse 1645.00 kg
Trockenmasse 1200.00 kg
Gesamtmasse 1645.00 kg
Länge 6.00 m
Durchmesser 1.00 m
Spannweite 10.00 m
Form Box + 2 Pan
Hersteller RESH
Bus-Typ KAUR-4N
Phasenstatus In Orbit
Besitzer/Staat VVKOV/IACG/RU

Große Konstellationen

Loading constellations...